Location: Noyers
(47.2770°N, 1.4032°E)
Time: 03:36:50
(UTC+00:00)

Ariane Rocket - Pass Details

Date: 15 May 2026
Orbit: 755 x 763 km, 98.4° (Epoch: 8 June)

Event Time Altitude Azimuth Distance (km) Brightness Sun altitude
Exits shadow 20:59:02 19° 141° (SE) 1,731 4.2 -13.3°
Maximum altitude 21:02:28 54° 70° (ENE) 923 3.3 -13.7°
Drops below altitude 10° 21:07:24 10° 354° (N) 2,308 6.4 -14.2°
Sets 21:09:45 0° 350° (N) 3,239 7.4 -14.5°
